Wind_Speed
45 45 46 46 47 47 48 48 48 48 48 48 49 50 50 51 51 52 52 53 53 53 53 52 52 52 52 53 53 53 52 53 53 53 53 53 53 52
47 48 47 48 49 49 48 48 49 50 50 50 51 52 54 55 54 54 53 54 54 55 55 55 55 55 54 54 54 55 55 54 55 55 55 55 55 54
48 49 49 49 50 50 49 50 50 51 51 51 52 53 55 55 55 55 55 55 55 56 56 56 56 56 56 56 56 56 56 56 56 56 56 56 56 55
48 49 49 50 50 50 50 50 51 52 53 53 53 54 55 55 55 55 55 55 55 55 56 56 57 57 57 57 57 57 57 57 57 57 57 57 56 55
47 48 49 49 49 50 51 51 52 53 54 54 55 55 55 54 55 55 54 54 56 55 56 56 57 58 58 58 58 57 57 57 57 57 56 56 55 55
47 48 48 48 49 50 51 52 53 53 54 54 54 54 55 54 54 54 55 56 56 55 55 55 55 55 56 57 57 57 57 57 57 56 56 56 56 55
46 48 48 48 49 49 50 51 52 53 54 54 54 54 54 54 53 54 54 54 55 55 54 54 54 54 54 54 54 54 54 55 55 55 55 55 55 55
45 46 47 48 49 49 50 51 52 53 53 53 53 53 53 53 53 53 53 53 53 53 54 54 54 53 53 52 52 52 52 52 52 53 53 53 53 52
45 45 46 47 48 49 49 50 50 51 52 52 52 52 53 53 53 53 53 53 52 52 53 53 53 53 53 52 52 51 51 50 50 51 51 50 50 50
46 46 47 47 48 48 49 49 49 50 51 51 51 52 52 52 52 51 51 51 51 52 52 51 51 51 51 52 52 52 51 51 51 50 50 49 48 48
45 46 46 47 47 48 49 49 50 51 51 51 51 51 51 51 51 50 50 51 50 50 51 51 50 50 50 51 52 53 52 52 51 49 49 48 47 47
45 45 46 46 47 48 49 49 50 50 51 51 51 51 51 50 50 50 51 51 51 50 50 50 50 49 48 49 51 52 52 51 50 49 48 47 47 46
45 45 45 46 47 48 49 49 50 50 50 50 51 51 51 50 50 51 51 50 50 49 49 49 49 49 50 49 50 51 50 48 48 48 47 47 46 45
45 45 45 46 46 47 48 49 50 50 50 50 50 50 50 50 50 50 50 49 49 49 49 49 48 48 49 49 49 48 47 46 46 46 46 45 44 44
44 44 45 46 47 48 49 49 49 49 49 48 48 48 49 49 48 48 47 47 47 47 47 47 47 47 48 48 46 45 45 44 44 43 43 43 43 43
43 44 45 46 47 48 48 48 48 47 47 47 47 47 47 46 46 46 46 46 46 46 46 46 46 47 47 46 45 44 43 42 42 41 41 41 41 42
44 44 45 45 46 46 46 45 45 45 45 45 44 44 44 43 43 43 44 44 45 45 45 45 45 46 45 44 43 42 42 41 40 40 39 38 38 39
44 44 45 45 45 45 45 44 44 43 43 42 42 42 42 42 42 43 43 44 44 44 44 44 44 43 42 40 41 40 39 39 39 38 37 36 36 36
45 45 45 45 45 44 43 42 42 41 41 41 41 41 41 42 42 43 43 43 43 43 43 43 42 41 39 39 38 39 38 37 37 36 36 35 34 33
45 45 45 44 44 43 41 41 40 40 40 40 40 41 41 41 42 42 42 42 42 41 41 41 40 39 38 37 37 37 37 36 35 34 33 32 31 30
44 44 44 43 42 41 40 39 39 39 39 39 40 40 40 41 41 41 41 40 40 39 38 38 38 37 37 36 35 34 34 34 33 31 30 29 28 27
42 42 41 40 39 38 38 38 38 38 38 38 38 39 39 40 40 40 39 38 37 36 36 36 35 34 34 33 32 31 31 30 30 29 28 27 26 24
40 39 37 37 36 35 35 35 36 36 37 37 38 38 38 38 38 37 36 35 34 34 34 34 33 32 31 30 29 28 28 27 26 25 25 24 23 23
Wind_Direction
268 270 272 274 274 275 276 276 277 276 276 277 277 277 278 280 280 281 281 282 282 282 281 281 281 281 281 281 281 281 280 279 278 277 277 277 276 276
269 269 272 275 275 276 276 277 277 278 278 278 279 278 279 280 281 281 281 281 281 281 281 281 281 281 281 281 281 281 280 279 278 278 278 277 277 276
270 270 272 274 275 276 276 277 277 278 279 279 279 279 280 281 281 282 282 282 282 281 281 281 281 281 281 281 282 281 281 280 279 278 278 278 277 276
272 272 273 274 275 276 277 277 278 278 279 279 280 280 282 282 283 283 283 283 282 282 281 281 281 282 282 282 282 282 281 280 279 278 278 278 277 276
272 273 274 275 276 277 277 278 278 279 280 280 281 282 282 283 283 283 283 283 283 283 283 282 282 282 282 283 282 281 281 280 279 279 278 277 277 276
274 275 275 276 277 278 279 279 279 280 280 281 282 282 283 283 283 283 283 283 283 284 284 284 284 284 284 283 282 281 280 280 279 279 278 277 277 276
276 276 276 277 278 278 279 279 280 280 281 281 282 282 283 284 284 284 283 283 283 283 284 284 284 285 285 284 284 283 282 281 280 280 279 278 277 277
277 277 277 278 278 279 279 280 281 281 281 282 282 283 283 283 284 283 283 284 284 283 283 283 284 285 285 285 285 284 283 282 281 281 281 280 279 277
279 278 279 279 279 279 280 281 281 282 283 283 283 283 283 283 284 284 284 284 284 284 284 283 283 284 284 285 285 285 284 284 283 282 281 280 279 277
279 279 280 280 280 280 281 282 283 284 284 284 284 284 284 284 284 285 285 284 284 285 285 285 284 284 284 284 285 285 286 286 285 283 281 280 279 278
280 280 279 280 280 281 282 283 283 284 284 284 285 285 285 285 285 285 285 285 285 285 285 286 285 284 284 285 285 285 285 285 284 283 281 280 279 278
280 280 281 281 281 282 283 283 284 284 284 284 285 285 284 284 285 285 285 285 285 285 286 286 286 285 284 285 285 285 285 284 283 282 281 280 280 278
281 281 282 282 282 283 284 284 284 284 284 284 284 284 284 284 285 285 285 285 286 286 287 286 285 285 285 285 285 285 284 283 282 281 280 280 279 278
283 282 282 283 283 284 285 285 285 284 284 285 285 284 284 285 285 285 285 285 286 287 287 287 286 286 287 287 286 285 284 283 282 282 281 280 279 278
284 283 283 284 285 285 286 286 285 285 284 285 285 284 284 285 285 284 285 286 287 288 288 287 287 287 288 288 287 286 285 283 283 283 282 280 280 280
284 284 285 285 287 287 287 286 286 285 285 285 284 285 285 285 285 284 285 287 288 288 288 288 287 287 288 288 287 287 285 284 284 283 282 282 281 281
284 285 286 287 288 288 287 287 286 286 285 285 285 285 285 285 285 286 287 288 289 289 289 288 288 289 288 287 287 286 285 285 284 283 282 282 282 282
285 285 286 287 287 288 287 286 285 285 285 285 285 285 285 285 286 287 288 289 289 289 288 288 289 289 287 287 287 287 286 285 285 284 283 282 282 282
285 286 286 286 287 287 286 285 285 284 284 285 285 285 286 286 287 288 289 289 289 289 289 289 289 289 287 286 287 287 286 286 285 284 283 282 282 281
286 286 287 286 286 285 284 284 284 284 285 286 286 286 287 287 288 289 289 290 289 289 289 290 289 289 288 287 287 287 287 287 285 284 281 280 280 280
287 286 286 286 285 284 284 284 284 284 285 286 287 288 288 288 289 290 290 290 290 289 289 290 290 290 289 288 287 287 286 286 285 283 280 278 278 277
288 287 286 284 283 283 283 284 284 285 286 287 288 288 288 289 289 290 290 290 289 290 291 291 290 290 290 289 288 287 286 285 284 283 280 277 276 274
288 287 285 284 283 283 283 284 285 286 287 288 289 290 290 290 290 289 289 289 290 291 291 291 291 290 289 289 288 287 285 283 282 282 281 279 276 272
Height
5710 5709 5709 5708 5707 5706 5704 5703 5702 5701 5700 5698 5695 5693 5690 5688 5686 5684 5681 5679 5676 5674 5671 5669 5666 5664 5662 5659 5657 5655 5653 5650 5648 5647 5645 5643 5641 5640
5698 5698 5697 5696 5695 5693 5692 5690 5689 5688 5686 5685 5682 5679 5677 5674 5672 5669 5667 5665 5662 5659 5657 5655 5652 5650 5647 5645 5642 5640 5638 5635 5633 5631 5630 5628 5626 5624
5685 5685 5684 5683 5682 5681 5679 5677 5676 5674 5672 5671 5668 5665 5663 5660 5658 5655 5652 5650 5647 5644 5642 5640 5637 5634 5632 5629 5627 5624 5622 5619 5617 5615 5613 5612 5610 5609
5673 5673 5672 5670 5669 5668 5666 5664 5662 5660 5658 5657 5654 5651 5648 5646 5643 5640 5637 5634 5631 5629 5626 5624 5621 5618 5616 5613 5610 5608 5605 5603 5601 5599 5597 5596 5594 5592
5660 5659 5658 5657 5656 5654 5652 5650 5648 5646 5643 5642 5640 5637 5634 5630 5627 5625 5622 5618 5615 5613 5610 5607 5605 5602 5599 5596 5593 5591 5588 5586 5584 5582 5580 5578 5577 5575
5647 5646 5645 5643 5642 5641 5638 5636 5634 5632 5629 5627 5624 5622 5619 5615 5612 5609 5606 5603 5600 5596 5593 5591 5588 5585 5582 5579 5577 5574 5572 5569 5567 5565 5563 5561 5560 5559
5633 5632 5631 5630 5628 5626 5624 5622 5620 5617 5614 5612 5609 5606 5603 5600 5597 5594 5590 5587 5584 5580 5577 5574 5572 5569 5566 5563 5560 5558 5555 5552 5550 5548 5546 5544 5543 5541
5620 5619 5617 5616 5614 5612 5610 5608 5605 5602 5600 5597 5594 5591 5589 5585 5582 5578 5575 5572 5569 5567 5563 5559 5556 5553 5550 5548 5545 5542 5539 5536 5534 5532 5530 5528 5526 5525
5606 5605 5604 5602 5600 5598 5596 5594 5591 5588 5585 5582 5580 5577 5574 5571 5568 5564 5560 5557 5554 5550 5547 5545 5541 5539 5535 5532 5529 5526 5524 5521 5518 5516 5513 5511 5510 5508
5593 5592 5590 5589 5586 5585 5583 5580 5577 5574 5571 5568 5566 5563 5559 5555 5552 5549 5546 5543 5540 5536 5532 5530 5527 5524 5521 5517 5514 5511 5508 5506 5503 5500 5498 5496 5494 5493
5580 5578 5576 5575 5573 5571 5569 5566 5564 5560 5557 5554 5551 5548 5544 5541 5538 5535 5532 5529 5526 5522 5518 5516 5513 5510 5507 5503 5499 5496 5493 5491 5488 5485 5483 5481 5479 5478
5568 5565 5563 5561 5559 5556 5554 5552 5549 5546 5543 5540 5537 5534 5530 5527 5523 5520 5517 5514 5511 5509 5505 5502 5498 5495 5494 5491 5486 5481 5478 5475 5473 5470 5468 5466 5465 5463
5554 5552 5550 5547 5545 5542 5540 5537 5534 5531 5529 5525 5522 5519 5516 5513 5509 5506 5503 5500 5496 5494 5490 5487 5484 5480 5478 5476 5472 5467 5463 5461 5458 5456 5453 5452 5450 5449
5541 5539 5536 5534 5532 5529 5526 5523 5520 5517 5514 5511 5508 5505 5502 5499 5495 5492 5489 5485 5482 5479 5476 5472 5470 5466 5463 5460 5458 5454 5450 5446 5444 5441 5439 5438 5436 5435
5528 5526 5523 5521 5518 5515 5512 5509 5506 5503 5500 5497 5494 5491 5488 5484 5481 5478 5475 5472 5469 5465 5461 5458 5455 5452 5449 5446 5443 5440 5437 5434 5430 5428 5426 5424 5422 5421
5515 5513 5510 5507 5504 5501 5498 5495 5492 5489 5486 5483 5480 5477 5474 5471 5468 5465 5462 5459 5456 5452 5448 5445 5441 5438 5435 5432 5429 5426 5423 5421 5418 5415 5413 5411 5409 5407
5502 5500 5497 5494 5491 5488 5485 5482 5479 5476 5473 5470 5467 5464 5461 5458 5455 5452 5449 5446 5443 5439 5436 5432 5428 5425 5422 5419 5416 5413 5410 5407 5405 5403 5401 5399 5397 5395
5489 5487 5484 5481 5478 5475 5472 5469 5466 5463 5460 5457 5454 5451 5448 5446 5443 5440 5436 5433 5430 5427 5423 5420 5416 5413 5410 5407 5404 5401 5398 5395 5393 5391 5390 5388 5386 5384
5476 5474 5471 5468 5465 5462 5459 5456 5453 5450 5447 5445 5442 5439 5436 5433 5430 5427 5424 5420 5417 5414 5410 5407 5403 5400 5398 5396 5393 5389 5386 5384 5382 5380 5379 5377 5375 5373
5463 5460 5457 5454 5452 5449 5446 5443 5441 5438 5436 5433 5430 5427 5424 5421 5418 5415 5411 5408 5405 5401 5398 5395 5391 5388 5386 5384 5382 5379 5375 5373 5371 5370 5368 5367 5365 5364
5450 5447 5444 5441 5439 5436 5434 5431 5429 5427 5424 5421 5418 5415 5412 5409 5406 5402 5399 5396 5392 5389 5387 5384 5380 5377 5374 5372 5371 5369 5366 5363 5361 5360 5358 5357 5356 5355
5437 5434 5431 5428 5426 5424 5422 5420 5418 5415 5413 5410 5407 5403 5400 5397 5394 5390 5387 5384 5381 5378 5375 5373 5370 5367 5364 5362 5360 5358 5356 5354 5351 5350 5349 5348 5347 5347
5424 5421 5419 5417 5415 5413 5411 5409 5407 5404 5402 5399 5395 5392 5389 5385 5382 5379 5376 5373 5370 5368 5365 5362 5360 5357 5354 5352 5350 5349 5347 5345 5343 5342 5341 5339 5339 5339